Weather History for Eagle Creek, IN

Change the Weather History Date:

Wednesday, October 31, 2012

  Actual Average Record
Temperature  
Mean Temperature 40 °F 50 °F  
Max Temperature 43 °F 59 °F 77 °F (1999)
Min Temperature 36 °F 41 °F 30 °F (1996)
Degree Days  
Heating Degree Days 25 15  
Month to date heating degree days 399 330  
Since 1 July heating degree days 500 392  
Cooling Degree Days 0 0  
Month to date cooling degree days 1 15  
Year to date cooling degree days 1339 1058  
Moisture  
Dew Point 30 °F    
Average Humidity 71    
Maximum Humidity 79    
Minimum Humidity 62    
Precipitation  
Precipitation 0.00 in 0.09 in 2.24 in (2013)
Month to date precipitation 4.58 3.11  
Year to date precipitation 33.84 34.01  
Sea Level Pressure  
Sea Level Pressure 29.79 in    
Wind  
Wind Speed 12 mph (WNW)    
Max Wind Speed 20 mph    
Max Gust Speed 25 mph    
Visibility 10 miles    
Events      
T = Trace of Precipitation, MM = Missing Value Source: NWS Daily Summary

Daily Weather History Graph

Daily Weather History Graph

Search for Another Location

Airport:

Trip Planner

Search our weather history database for the weather conditions in past years. The results will help you decide how hot, cold, wet, or windy it might be!

Date:

Astronomy

Oct. 31, 2012 Rise Set
Actual Time 8:13 AM EDT 6:43 PM EDT
Civil Twilight 7:45 AM EDT 7:11 PM EDT
Nautical Twilight 7:13 AM EDT 7:43 PM EDT
Astronomical Twilight 6:42 AM EDT 8:14 PM EDT
Moon 7:54 PM EDT (10/31) 9:53 AM EDT (10/31)
Length of Visible Light 11h 26m
Length of Day
10h 30m
Full, 97% of the Moon is Illuminated
Oct 31
Full
Nov 6
Last Quarter
Nov 13
New
Nov 20
First Quarter
Nov 28
Full

Hourly Weather History & Observations

Time (EDT) Temp. Windchill Dew Point Humidity Pressure Visibility Wind Dir Wind Speed Gust Speed Precip Events Conditions
12:53 AM 39.9 °F 31.1 °F 33.1 °F 77% 29.73 in 10.0 mi NW 17.3 mph 26.5 mph N/A   Overcast
1:53 AM 39.9 °F 32.1 °F 33.1 °F 77% 29.73 in 10.0 mi NW 13.8 mph - N/A   Overcast
2:53 AM 39.9 °F 32.1 °F 33.1 °F 77% 29.73 in 10.0 mi NW 13.8 mph - N/A   Overcast
3:53 AM 39.9 °F 32.1 °F 32.0 °F 73% 29.73 in 10.0 mi WNW 13.8 mph - N/A   Overcast
4:53 AM 39.0 °F 29.9 °F 28.9 °F 67% 29.73 in 10.0 mi WNW 17.3 mph 23.0 mph N/A   Overcast
5:28 AM 37.4 °F 28.5 °F 28.4 °F 70% 29.73 in 10.0 mi WNW 15.0 mph - N/A   Overcast
5:53 AM 37.9 °F 29.2 °F 28.0 °F 68% 29.75 in 10.0 mi WNW 15.0 mph - N/A   Overcast
6:53 AM 37.9 °F 30.0 °F 28.0 °F 68% 29.75 in 10.0 mi NW 12.7 mph 24.2 mph N/A   Overcast
7:53 AM 37.0 °F 28.9 °F 27.0 °F 67% 29.76 in 10.0 mi NW 12.7 mph - N/A   Overcast
8:53 AM 37.0 °F 28.9 °F 27.0 °F 67% 29.78 in 10.0 mi WNW 12.7 mph 21.9 mph N/A   Overcast
9:53 AM 37.0 °F 28.1 °F 28.0 °F 70% 29.79 in 10.0 mi NW 15.0 mph - N/A   Overcast
10:53 AM 37.9 °F 28.9 °F 28.9 °F 70% 29.79 in 10.0 mi NW 16.1 mph 23.0 mph N/A   Mostly Cloudy
11:53 AM 39.9 °F 32.5 °F 30.0 °F 68% 29.80 in 10.0 mi NW 12.7 mph 21.9 mph N/A   Overcast
12:53 PM 39.9 °F 32.1 °F 30.0 °F 68% 29.80 in 10.0 mi WNW 13.8 mph 20.7 mph N/A   Overcast
1:53 PM 41.0 °F 32.8 °F 30.9 °F 67% 29.80 in 10.0 mi WNW 16.1 mph 21.9 mph N/A   Overcast
3:53 PM 42.1 °F 35.7 °F 30.9 °F 65% 29.81 in 10.0 mi NW 11.5 mph 20.7 mph N/A   Overcast
4:53 PM 43.0 °F 35.7 °F 30.0 °F 60% 29.81 in 10.0 mi NW 15.0 mph 21.9 mph N/A   Overcast
5:53 PM 43.0 °F 36.8 °F 30.0 °F 60% 29.82 in 10.0 mi NW 11.5 mph - N/A   Overcast
6:53 PM 42.1 °F 35.2 °F 30.0 °F 62% 29.83 in 10.0 mi NW 12.7 mph - N/A   Overcast
7:53 PM 42.1 °F 36.1 °F 30.0 °F 62% 29.85 in 10.0 mi NW 10.4 mph - N/A   Overcast
8:53 PM 42.1 °F 39.2 °F 30.9 °F 65% 29.85 in 10.0 mi WNW 4.6 mph - N/A   Overcast
9:53 PM 42.1 °F 37.7 °F 32.0 °F 67% 29.86 in 10.0 mi WNW 6.9 mph - N/A   Overcast
10:53 PM 41.0 °F 38.0 °F 30.9 °F 67% 29.85 in 10.0 mi West 4.6 mph - N/A   Mostly Cloudy
11:53 PM 42.1 °F 37.1 °F 32.0 °F 67% 29.85 in 10.0 mi West 8.1 mph - N/A   Overcast